[[{"header":{"parameterUnit":"m.s-1","parameterCategory":1,"la1":30.2992,"la2":30.254,"lo1":-89.0895,"lo2":-89.0443,"dy":0.0025,"dx":0.0025,"nx":19,"ny":19,"refTime":"2026-04-13T09:00:00:Z","depth":0,"parameterNumber":2,"parameterNumberName":"U-component_of_WINDS"},"data":[0,0,0,-1.4218,-1.4219,-1.4287,-1.4287,-1.4372,-1.4373,0,0,0,0,0,0,0,0,0,0,0,-1.4197,-1.4197,-1.4217,-1.4219,-1.4287,-1.4287,-1.4372,-1.4373,0,0,0,0,0,0,0,0,0,0,0,-1.4197,-1.4197,-1.4198,-1.4219,-1.4287,-1.4287,-1.4372,-1.4321,0,0,0,0,0,0,0,0,0,0,-1.4256,-1.4236,-1.4197,-1.4198,-1.422,-1.4287,-1.4287,-1.4319,-1.4325,-1.4341,0,-1.4356,0,-1.4366,-1.4379,-1.4379,0,0,0,-1.422,-1.4231,-1.425,-1.4198,-1.422,-1.4287,-1.4256,-1.4322,-1.4328,-1.4348,-1.4357,-1.436,-1.4367,-1.4379,-1.438,-1.4474,-1.4474,0,0,-1.4216,-1.4209,-1.4246,-1.4254,-1.4244,-1.4254,-1.4258,-1.4326,-1.4335,-1.4357,-1.4362,-1.4369,-1.438,-1.438,-1.4474,-1.4474,0,0,0,-1.4205,-1.4206,-1.4223,-1.4251,-1.4263,-1.4256,-1.4261,-1.4332,-1.4338,-1.4363,-1.437,-1.438,-1.4381,-1.4473,-1.4474,-1.4488,0,0,0,-1.4203,-1.42,-1.4222,-1.4218,-1.4262,-1.4298,-1.4265,-1.4333,-1.4341,-1.4369,-1.438,-1.4382,-1.4473,-1.4474,-1.4487,-1.4496,0,0,0,-1.4193,-1.4198,-1.4208,-1.4217,-1.4246,-1.4297,-1.4307,-1.4335,-1.4345,-1.4379,-1.4382,-1.4473,-1.4473,-1.4485,-1.4494,-1.4519,0,0,0,-1.418,-1.4219,-1.4208,-1.4254,-1.4246,-1.4305,-1.4307,-1.4352,-1.4383,-1.4381,-1.4473,-1.4474,-1.4485,-1.4493,-1.4518,-1.454,-1.4548,0,0,-1.4226,-1.4224,-1.4252,-1.4244,-1.4304,-1.4296,-1.4358,-1.4393,-1.4402,-1.445,-1.4452,-1.4487,-1.4494,-1.4519,-1.4595,-1.4602,0,0,0,-1.4264,-1.4284,-1.4302,-1.4331,-1.4358,-1.4383,-1.4409,-1.4422,-1.4463,-1.4425,-1.4503,-1.4507,-1.4522,-1.4533,-1.4538,-1.4552,-1.4478,-1.4478,-1.4478,-1.4319,-1.4329,-1.4376,-1.4395,-1.4423,-1.4449,-1.4473,-1.4495,-1.4497,-1.4516,-1.453,-1.4575,-1.4587,-1.4591,-1.4605,-1.4542,-1.4542,-1.4542,-1.4542,-1.4387,-1.4417,-1.4419,-1.4465,-1.4476,-1.4515,-1.4542,-1.4542,-1.458,-1.4565,-1.4579,-1.4562,-1.4598,-1.4611,-1.4543,-1.4543,-1.4543,-1.4543,-1.4542,-1.4425,-1.4441,-1.4456,-1.4499,-1.4531,-1.4548,-1.4585,-1.4593,-1.4601,-1.4615,-1.4631,-1.4631,-1.4632,-1.4622,-1.4622,-1.4622,-1.4622,-1.4622,-1.4622,-1.4458,-1.4474,-1.4504,-1.4537,-1.4557,-1.4584,-1.4611,-1.463,-1.4654,-1.4658,-1.4658,-1.4658,-1.4599,-1.4585,-1.4625,-1.4624,-1.4624,-1.4624,-1.4624,-1.4525,-1.4511,-1.4557,-1.4577,-1.4616,-1.4647,-1.4657,-1.4697,-1.4714,-1.4732,-1.4729,-1.4684,-1.4684,-1.4679,-1.4667,-1.4726,-1.4726,-1.4726,-1.4726,-1.4557,-1.4558,-1.4607,-1.4638,-1.4669,-1.4683,-1.4734,-1.4756,-1.4775,-1.4787,-1.4779,-1.4764,-1.4759,-1.4761,-1.4755,-1.4744,-1.4822,-1.4822,-1.4822,-1.4599,-1.4603,-1.4646,-1.4665,-1.4696,-1.4722,-1.4771,-1.4807,-1.4826,-1.4826,-1.4796,-1.4792,-1.4767,-1.4759,-1.4758,-1.4749,-1.4729,0,0]},{"header":{"parameterUnit":"m.s-1","parameterCategory":1,"la1":30.2992,"la2":30.254,"lo1":-89.0895,"lo2":-89.0443,"dy":0.0025,"dx":0.0025,"nx":19,"ny":19,"refTime":"2026-04-13T09:00:00:Z","depth":0,"parameterNumber":3,"parameterNumberName":"V-component_of_WINDS"},"data":[0,0,0,4.6901,4.6904,4.7031,4.7031,4.7198,4.72,0,0,0,0,0,0,0,0,0,0,0,4.6869,4.687,4.6901,4.6904,4.7031,4.7031,4.7198,4.72,0,0,0,0,0,0,0,0,0,0,0,4.6868,4.687,4.6872,4.6905,4.7031,4.7031,4.7198,4.71,0,0,0,0,0,0,0,0,0,0,4.6975,4.6952,4.687,4.6872,4.6905,4.7031,4.7031,4.7095,4.7106,4.7144,0,4.7181,0,4.7193,4.7212,4.7212,0,0,0,4.69,4.6943,4.6972,4.6872,4.6907,4.7031,4.6972,4.7101,4.7113,4.7158,4.7183,4.7189,4.7196,4.7213,4.7214,4.7449,4.745,0,0,4.6893,4.6894,4.6964,4.698,4.6964,4.6968,4.6976,4.7108,4.7135,4.7184,4.7193,4.7199,4.7214,4.7215,4.7448,4.745,0,0,0,4.6876,4.689,4.6916,4.6974,4.6996,4.6972,4.6981,4.7129,4.7137,4.7195,4.7201,4.7215,4.7217,4.7447,4.7449,4.7514,0,0,0,4.6871,4.688,4.6913,4.6915,4.6994,4.7065,4.6999,4.7128,4.7143,4.72,4.7215,4.7219,4.7445,4.7448,4.7509,4.7544,0,0,0,4.6859,4.6878,4.6899,4.6915,4.697,4.7063,4.7079,4.7131,4.7147,4.7212,4.7219,4.7444,4.7447,4.7505,4.7537,4.7605,0,0,0,4.6846,4.6956,4.69,4.7025,4.6969,4.7103,4.7078,4.7178,4.7242,4.7216,4.7445,4.7448,4.7504,4.7533,4.7601,4.7662,4.7688,0,0,4.6986,4.6973,4.7046,4.7,4.7145,4.7084,4.7237,4.7294,4.7298,4.7398,4.7404,4.7511,4.7537,4.7604,4.7837,4.7857,0,0,0,4.7091,4.7144,4.7182,4.7243,4.7289,4.733,4.7363,4.7384,4.7468,4.7351,4.7555,4.757,4.7609,4.7638,4.7656,4.7688,4.7462,4.7462,4.7462,4.7292,4.7291,4.7411,4.7425,4.7484,4.7516,4.7563,4.7595,4.7578,4.7626,4.7655,4.7796,4.783,4.7844,4.7878,4.7689,4.7689,4.7689,4.7689,4.7495,4.7568,4.7541,4.7648,4.7645,4.7734,4.7767,4.7751,4.7831,4.7775,4.7809,4.7746,4.7867,4.7896,4.7694,4.7693,4.7693,4.7692,4.7692,4.7625,4.766,4.7683,4.7769,4.7835,4.7844,4.7922,4.7917,4.7913,4.7947,4.7976,4.7975,4.7971,4.7962,4.7962,4.7963,4.7963,4.7963,4.7964,4.775,4.7774,4.7841,4.7898,4.7934,4.7982,4.8013,4.8048,4.8086,4.8076,4.8076,4.8052,4.7879,4.7835,4.7971,4.797,4.7969,4.7968,4.7968,4.7955,4.7907,4.8011,4.8048,4.8111,4.8175,4.8167,4.8239,4.8268,4.8305,4.8274,4.8148,4.8134,4.812,4.8083,4.8275,4.8275,4.8275,4.8275,4.8063,4.8056,4.8159,4.8217,4.8274,4.8277,4.839,4.8414,4.8431,4.8447,4.8419,4.837,4.8356,4.835,4.8331,4.8297,4.8539,4.8539,4.8539,4.8187,4.8185,4.8284,4.83,4.8349,4.8389,4.8495,4.8561,4.857,4.855,4.846,4.8448,4.8369,4.8344,4.8322,4.8292,4.8229,0,0]}]]